Погода в Лажинах

Россия / Новгородская область     58°09′17″N   31°49′13″E
темп.,
°C
ветер,
м/с
пор.,
м/с
влажн.,
%
обл.,
%
осадки,
мм/ч
давл.,
гПа
погр.,
м
15 мая, сб
сб1500:00+11вюв23895 0.0 101048
03:00+10вюв3593100 0.0 100974
06:00+12в3790100 0.0 1007181
09:00+15в368585 0.3 1006353
12:00+18вюв3474100 0.3 1005932
15:00+18ю4572100 0.4 1004924
18:00+16ююв3686100 0.3 1004396
21:00+14ю25954 0.5 1003113
16 мая, вс
вс1600:00+12ю35977 0.1 100390
03:00+10ююз359928 0.1 100498
06:00+11юз2699100 0.0 1005130
09:00+14зюз468988 0.0 1007368
12:00+17з577030 0.1 1008838
15:00+19з465916 0.2 10091218
18:00+19зюз34544 0.0 1010849
21:00+14ююз22755 0.0 101116
17 мая, пн
пн1700:00+12юв227792 0.0 101114
03:00+11юв348184 0.0 101267
06:00+12юв37845 0.0 1012158
09:00+18юв3665100 0.0 1012475
12:00+21юв4652100 0.0 10111410
15:00+24ююв4743100 0.0 10092196
18:00+22юв4853100 0.0 10081517
21:00+16в31190100 1.1 1007197
18 мая, вт
вт1800:00+16вюв31394100 2.1 1005395
03:00+16вюв51396100 2.3 1003362
06:00+16вюв51394100 0.0 1002521
09:00+21юв51275100 0.1 1001775
12:00+24ююв61162100 0.1 10001462
15:00+21ююв41177100 1.6 10001095
18:00+19ююв6128378 1.0 999954
21:00+15ю61291100 1.8 1001733
19 мая, ср
ср1900:00+12ююз51089100 0.1 1002728
03:00+10юз3695100 0.1 1003250
06:00+11ююз1292100 0.0 100379
09:00+13св2379100 0.0 1002401
12:00+12ссз3695100 0.8 1001240
15:00+11зсз5999100 7.1 1000358
18:00+10зюз61198100 2.1 1002507
21:00+9зюз3897100 2.4 1004379